This is the latest recevied weather packets stored in our database for station/object KC1HBM. If no packets are shown the sender has not sent any weather packets the latest 10 day(s).
| Time | Temp. | Humidity | Pressure | Rain* | Wind** | Luminosity | Snow |
|---|---|---|---|---|---|---|---|
| 1777427358 | 6.67° C | 69% | 1019 hPa | 0 mm | - | 0 W/m² | - |
| 1777427055 | 6.67° C | 68% | 1019.1 hPa | 0 mm | - | 0 W/m² | - |
| 1777426752 | 6.67° C | 67% | 1019.1 hPa | 0 mm | - | 0 W/m² | - |
| 1777426450 | 6.67° C | 68% | 1018.9 hPa | 0 mm | - | 0 W/m² | - |
| 1777426145 | 6.67° C | 67% | 1019.1 hPa | 0 mm | - | 0 W/m² | - |
| 1777425840 | 6.67° C | 65% | 1019.1 hPa | 0 mm | - | 0 W/m² | - |
| 1777425536 | 6.67° C | 66% | 1019.1 hPa | 0 mm | - | 0 W/m² | - |
| 1777425230 | 6.67° C | 63% | 1019.1 hPa | 0 mm | - | 0 W/m² | - |
| 1777424928 | 6.67° C | 58% | 1019.2 hPa | 0 mm | - | 0 W/m² | - |
| 1777424624 | 6.67° C | 57% | 1019.1 hPa | 0 mm | - | 0 W/m² | - |
| 1777424319 | 6.67° C | 57% | 1019.1 hPa | 0 mm | - | 0 W/m² | - |
| 1777424015 | 6.67° C | 57% | 1019.3 hPa | 0 mm | - | 0 W/m² | - |
| 1777423712 | 6.67° C | 56% | 1019.1 hPa | 0 mm | - | 0 W/m² | - |
| 1777423408 | 6.67° C | 55% | 1019.2 hPa | 0 mm | - | 0 W/m² | - |
| 1777423108 | 6.67° C | 54% | 1019 hPa | 0 mm | - | 0 W/m² | - |
| 1777422803 | 6.67° C | 54% | 1019.1 hPa | 0 mm | - | 0 W/m² | - |
| 1777422499 | 6.67° C | 52% | 1019.3 hPa | 0 mm | - | 0 W/m² | - |
| 1777422195 | 6.67° C | 51% | 1019.3 hPa | 0 mm | - | 0 W/m² | - |
| 1777421894 | 6.67° C | 50% | 1019.4 hPa | 0 mm | - | 0 W/m² | - |
| 1777421589 | 7.22° C | 49% | 1019.3 hPa | 0 mm | - | 0 W/m² | - |
| 1777421285 | 7.22° C | 47% | 1019.3 hPa | 0 mm | - | 0 W/m² | - |
| 1777420982 | 7.22° C | 46% | 1019.2 hPa | 0 mm | - | 0 W/m² | - |
| 1777420678 | 7.22° C | 46% | 1019.2 hPa | 0 mm | - | 0 W/m² | - |
| 1777420374 | 7.78° C | 46% | 1019.1 hPa | 0 mm | - | 0 W/m² | - |
| 1777420070 | 7.78° C | 45% | 1019.3 hPa | 0 mm | - | 0 W/m² | - |
* Rain latest hour (hover to see other rain measurements)
** Current wind speed in m/s (hover to see current wind gust speed)